TimeMDT,TemperatureF,Dew PointF,Humidity,Sea Level PressureIn,VisibilityMPH,Wind Direction,Wind SpeedMPH,Gust SpeedMPH,PrecipitationIn,Events,Conditions,WindDirDegrees,DateUTC
12:55 AM,35.1,28.9,78,29.91,10.0,SSE,11.5,-,N/A,,Overcast,150,2013-04-30 06:55:00
1:55 AM,32.0,28.0,85,29.91,10.0,South,6.9,-,N/A,,Clear,180,2013-04-30 07:55:00
2:55 AM,33.1,28.9,85,29.91,10.0,SSE,9.2,-,N/A,,Clear,160,2013-04-30 08:55:00
3:55 AM,30.9,28.0,89,29.93,10.0,South,4.6,-,N/A,,Clear,190,2013-04-30 09:55:00
4:55 AM,24.1,23.0,96,29.96,10.0,WSW,3.5,-,N/A,,Clear,240,2013-04-30 10:55:00
5:55 AM,25.0,23.0,92,29.98,10.0,WNW,3.5,-,N/A,,Clear,290,2013-04-30 11:55:00
6:55 AM,21.9,19.9,92,30.01,10.0,Calm,Calm,-,N/A,,Clear,0,2013-04-30 12:55:00
7:55 AM,32.0,26.1,79,30.01,10.0,Calm,Calm,-,N/A,,Partly Cloudy,0,2013-04-30 13:55:00
8:55 AM,36.0,28.0,73,30.03,10.0,Calm,Calm,-,N/A,,Clear,0,2013-04-30 14:55:00
9:55 AM,39.0,25.0,57,30.03,10.0,Calm,Calm,-,N/A,,Partly Cloudy,0,2013-04-30 15:55:00
11:55 AM,41.0,25.0,53,30.04,10.0,NNE,16.1,23.0,N/A,,Clear,20,2013-04-30 17:55:00
12:55 PM,37.9,27.0,65,30.09,10.0,Variable,3.5,-,N/A,,Mostly Cloudy,0,2013-04-30 18:55:00
1:34 PM,33.8,30.2,87,30.05,1.8,SSE,12.7,-,0.00,Snow,Light Snow,150,2013-04-30 19:34:00
1:45 PM,33.8,30.2,87,30.05,1.2,SSE,11.5,-,0.00,Snow,Light Snow,150,2013-04-30 19:45:00
1:55 PM,34.0,30.9,89,30.14,1.0,SSE,9.2,-,0.01,Snow,Light Snow,160,2013-04-30 19:55:00
2:05 PM,33.8,30.2,87,30.06,0.8,SSE,11.5,-,0.00,Snow,Light Snow,160,2013-04-30 20:05:00
2:13 PM,33.8,32.0,93,30.06,1.5,SSE,12.7,-,0.00,Snow,Light Snow,160,2013-04-30 20:13:00
2:33 PM,35.6,30.2,81,30.07,10.0,South,10.4,-,0.00,,Scattered Clouds,170,2013-04-30 20:33:00
2:55 PM,35.6,30.2,81,30.08,10.0,South,11.5,-,N/A,,Mostly Cloudy,180,2013-04-30 20:55:00
3:55 PM,37.9,28.9,70,30.17,10.0,SSW,6.9,-,N/A,,Mostly Cloudy,200,2013-04-30 21:55:00
4:55 PM,37.9,28.9,70,30.20,10.0,South,3.5,-,N/A,,Mostly Cloudy,190,2013-04-30 22:55:00
5:55 PM,39.0,27.0,62,30.22,10.0,Calm,Calm,-,N/A,,Mostly Cloudy,0,2013-04-30 23:55:00
6:55 PM,37.9,27.0,65,30.25,10.0,SSE,3.5,-,N/A,,Mostly Cloudy,150,2013-05-01 00:55:00
7:55 PM,37.9,28.9,70,30.25,10.0,SSW,4.6,-,N/A,,Mostly Cloudy,210,2013-05-01 01:55:00
8:55 PM,35.1,27.0,72,30.27,10.0,South,3.5,-,N/A,,Mostly Cloudy,190,2013-05-01 02:55:00
9:55 PM,32.0,27.0,82,30.30,10.0,Calm,Calm,-,N/A,,Mostly Cloudy,0,2013-05-01 03:55:00
10:55 PM,34.0,28.0,79,30.31,10.0,Calm,Calm,-,N/A,,Overcast,0,2013-05-01 04:55:00
11:55 PM,34.0,28.0,79,30.34,10.0,Calm,Calm,-,N/A,,Overcast,0,2013-05-01 05:55:00